カタログに戻る

YAOGAN-36 02C

運用中軍事VLEO
NORAD 54045·PAYLOAD·🇨🇳 China

打ち上げ Oct 14, 2022 から Xichang Satellite Launch Center

Loading…

次のパス (今後24時間)

TLE

最新Source: Space-Track

元期: Sep 14, 2026, 22:56 UTC

1 54045U 22133D   26257.95620207  .00070589  00000-0  96135-3 0  9998
2 54045  34.9874 203.2152 0008175 311.4276  48.5746 15.56316260219185

AllMySatでYAOGAN-36 02Cをリアルタイム追跡

Download on the App Store